| time (UTC) | temp F | wind direction | speed MPH | gust MPH | rain 1hr in | rain 24hr in | rain mn in | humidity % | barometer mb |
| 20260507130003 | 55 | 73 | 2.0 | 4.0 | 0.00 | 0.00 | 0.00 | 91 | 1015.1 |
| 20260507124501 | 55 | 78 | 1.0 | 3.0 | 0.00 | 0.00 | 0.00 | 91 | 1015.0 |
| 20260507123002 | 55 | 116 | 0.0 | 1.0 | 0.00 | 0.00 | 0.00 | 91 | 1015.0 |
| 20260507121502 | 56 | 84 | 2.0 | 4.0 | 0.00 | 0.00 | 0.00 | 90 | 1014.8 |
| 20260507120002 | 55 | 111 | 2.0 | 4.0 | 0.00 | 0.00 | 0.00 | 90 | 1014.8 |
| 20260507114502 | 55 | 77 | 2.0 | 3.0 | 0.00 | 0.00 | 0.00 | 90 | 1014.9 |
| 20260507113001 | 56 | 92 | 1.0 | 3.0 | 0.00 | 0.00 | 0.00 | 90 | 1015.0 |
| 20260507110000 | 56 | 92 | 2.0 | 4.0 | 0.00 | 0.00 | 0.00 | 90 | 1015.1 |
| 20260507104501 | 56 | 80 | 2.0 | 4.0 | 0.00 | 0.00 | 0.00 | 90 | 1015.2 |
| 20260507103000 | 56 | 74 | 2.0 | 4.0 | 0.00 | 0.00 | 0.00 | 90 | 1015.3 |
| 20260507101500 | 56 | 77 | 1.0 | 2.0 | 0.00 | 0.00 | 0.00 | 89 | 1015.4 |
| 20260507100002 | 57 | 101 | 1.0 | 2.0 | 0.00 | 0.00 | 0.00 | 89 | 1015.4 |
| 20260507094500 | 57 | 109 | 2.0 | 3.0 | 0.00 | 0.00 | 0.00 | 89 | 1015.5 |
| 20260507093001 | 57 | 81 | 2.0 | 3.0 | 0.00 | 0.00 | 0.00 | 89 | 1015.7 |
| 20260507091500 | 57 | 80 | 2.0 | 3.0 | 0.00 | 0.00 | 0.00 | 89 | 1015.7 |
| 20260507084500 | 57 | 78 | 2.0 | 3.0 | 0.00 | 0.00 | 0.00 | 87 | 1016.0 |
| 20260507083001 | 58 | 81 | 1.0 | 3.0 | 0.00 | 0.00 | 0.00 | 87 | 1016.0 |
| 20260507081500 | 58 | 96 | 1.0 | 3.0 | 0.00 | 0.00 | 0.00 | 87 | 1016.1 |
| 20260507080001 | 58 | 105 | 2.0 | 4.0 | 0.00 | 0.00 | 0.00 | 87 | 1016.2 |
| 20260507074500 | 58 | 84 | 2.0 | 4.0 | 0.00 | 0.00 | 0.00 | 86 | 1016.3 |
| 20260507073000 | 58 | 101 | 2.0 | 3.0 | 0.00 | 0.00 | 0.00 | 87 | 1016.5 |
| 20260507071501 | 59 | 82 | 1.0 | 2.0 | 0.00 | 0.00 | 0.00 | 86 | 1016.5 |
| 20260507064500 | 59 | 98 | 2.0 | 3.0 | 0.00 | 0.00 | 0.00 | 87 | 1016.5 |
| 20260507062959 | 59 | 131 | 1.0 | 3.0 | 0.00 | 0.00 | 0.00 | 86 | 1016.5 |
| 20260507060001 | 60 | 138 | 1.0 | 2.0 | 0.00 | 0.00 | 0.00 | 85 | 1016.6 |
| 20260507053000 | 60 | 169 | 1.0 | 2.0 | 0.00 | 0.00 | 0.00 | 84 | 1016.6 |
| 20260507051459 | 60 | 212 | 0.0 | 1.0 | 0.00 | 0.00 | 0.00 | 84 | 1016.5 |
| 20260507050004 | 60 | 230 | 1.0 | 3.0 | 0.00 | 0.00 | 0.00 | 84 | 1016.4 |
| 20260507043003 | 61 | 192 | 1.0 | 3.0 | 0.00 | 0.00 | 0.00 | 82 | 1016.5 |
| 20260507041503 | 61 | 207 | 2.0 | 3.0 | 0.00 | 0.00 | 0.00 | 83 | 1016.4 |
| 20260507040003 | 61 | 215 | 1.0 | 3.0 | 0.00 | 0.00 | 0.00 | 83 | 1016.3 |
| 20260507034503 | 61 | 262 | 1.0 | 3.0 | 0.00 | 0.00 | 0.00 | 83 | 1016.2 |
| 20260507033003 | 62 | 259 | 2.0 | 4.0 | 0.00 | 0.00 | 0.00 | 82 | 1016.1 |
| 20260507031504 | 62 | 259 | 2.0 | 5.0 | 0.00 | 0.00 | 0.00 | 81 | 1016.0 |
| 20260507030004 | 62 | 215 | 3.0 | 4.0 | 0.00 | 0.00 | 0.00 | 82 | 1015.9 |
| 20260507024503 | 63 | 186 | 3.0 | 5.0 | 0.00 | 0.00 | 0.00 | 80 | 1015.7 |
| 20260507023004 | 64 | 215 | 3.0 | 6.0 | 0.00 | 0.00 | 0.00 | 77 | 1015.6 |
| 20260507021504 | 65 | 225 | 4.0 | 6.0 | 0.00 | 0.00 | 0.00 | 74 | 1015.5 |
| 20260507020005 | 66 | 212 | 4.0 | 8.0 | 0.00 | 0.00 | 0.00 | 70 | 1015.3 |
| 20260507014503 | 67 | 259 | 5.0 | 9.0 | 0.00 | 0.00 | 0.00 | 67 | 1015.3 |
| 20260507013003 | 68 | 250 | 3.0 | 8.0 | 0.00 | 0.00 | 0.00 | 62 | 1015.3 |
| 20260507011503 | 69 | 222 | 3.0 | 8.0 | 0.00 | 0.00 | 0.00 | 61 | 1015.2 |
| 20260507010004 | 70 | 243 | 4.0 | 10.0 | 0.00 | 0.00 | 0.00 | 59 | 1015.1 |
| 20260507001503 | 71 | 231 | 5.0 | 10.0 | 0.00 | 0.00 | 0.00 | 60 | 1015.0 |
| 20260507000005 | 70 | 240 | 6.0 | 11.0 | 0.00 | 0.00 | 0.00 | 61 | 1014.8 |
| 20260506234502 | 71 | 216 | 5.0 | 10.0 | 0.00 | 0.00 | 0.00 | 61 | 1014.8 |
| 20260506233003 | 71 | 257 | 6.0 | 10.0 | 0.00 | 0.00 | 0.00 | 62 | 1014.8 |
| 20260506231504 | 72 | 265 | 5.0 | 12.0 | 0.00 | 0.00 | 0.00 | 60 | 1014.9 |
| 20260506230003 | 73 | 302 | 5.0 | 11.0 | 0.00 | 0.00 | 0.00 | 60 | 1015.0 |
| 20260506224502 | 72 | 272 | 7.0 | 12.0 | 0.00 | 0.00 | 0.00 | 60 | 1015.2 |
| 20260506223004 | 73 | 246 | 6.0 | 11.0 | 0.00 | 0.00 | 0.00 | 61 | 1015.3 |
| 20260506221504 | 73 | 282 | 6.0 | 10.0 | 0.00 | 0.00 | 0.00 | 60 | 1015.3 |
| 20260506220002 | 73 | 273 | 7.0 | 13.0 | 0.00 | 0.00 | 0.00 | 60 | 1015.5 |
| 20260506214502 | 74 | 215 | 6.0 | 11.0 | 0.00 | 0.00 | 0.00 | 59 | 1015.6 |
| 20260506213003 | 74 | 223 | 7.0 | 12.0 | 0.00 | 0.00 | 0.00 | 59 | 1015.8 |
| 20260506211502 | 73 | 249 | 8.0 | 15.0 | 0.00 | 0.00 | 0.00 | 59 | 1015.8 |
| 20260506204502 | 74 | 194 | 7.0 | 13.0 | 0.00 | 0.00 | 0.00 | 58 | 1016.0 |
| 20260506203002 | 74 | 260 | 5.0 | 10.0 | 0.00 | 0.00 | 0.00 | 57 | 1016.0 |
| 20260506201502 | 74 | 226 | 6.0 | 10.0 | 0.00 | 0.00 | 0.00 | 58 | 1016.2 |
| 20260506200001 | 73 | 251 | 6.0 | 11.0 | 0.00 | 0.00 | 0.00 | 59 | 1016.2 |
| 20260506194501 | 72 | 252 | 8.0 | 13.0 | 0.00 | 0.00 | 0.00 | 59 | 1016.5 |
| 20260506193001 | 74 | 237 | 7.0 | 14.0 | 0.00 | 0.00 | 0.00 | 58 | 1016.5 |
| 20260506191501 | 76 | 248 | 5.0 | 10.0 | 0.00 | 0.00 | 0.00 | 54 | 1016.6 |
| 20260506190001 | 75 | 205 | 4.0 | 11.0 | 0.00 | 0.00 | 0.00 | 55 | 1016.7 |
| 20260506184502 | 75 | 296 | 3.0 | 11.0 | 0.00 | 0.00 | 0.00 | 54 | 1016.8 |
| 20260506183001 | 75 | 274 | 2.0 | 5.0 | 0.00 | 0.00 | 0.00 | 53 | 1017.0 |
| 20260506181501 | 74 | 184 | 2.0 | 7.0 | 0.00 | 0.00 | 0.00 | 55 | 1017.1 |
| 20260506180001 | 73 | 320 | 2.0 | 7.0 | 0.00 | 0.00 | 0.00 | 52 | 1017.3 |
| 20260506174502 | 72 | 230 | 2.0 | 7.0 | 0.00 | 0.00 | 0.00 | 56 | 1017.4 |
| 20260506171503 | 72 | 227 | 2.0 | 5.0 | 0.00 | 0.00 | 0.00 | 57 | 1017.7 |
| 20260506170003 | 70 | 175 | 2.0 | 7.0 | 0.00 | 0.00 | 0.00 | 60 | 1017.6 |
| 20260506164502 | 69 | 178 | 3.0 | 7.0 | 0.00 | 0.00 | 0.00 | 61 | 1017.6 |
| 20260506161503 | 69 | 304 | 1.0 | 2.0 | 0.00 | 0.00 | 0.00 | 64 | 1017.7 |
| 20260506160001 | 67 | 270 | 1.0 | 7.0 | 0.00 | 0.00 | 0.00 | 64 | 1017.6 |
| 20260506154501 | 65 | 15 | 1.0 | 4.0 | 0.00 | 0.00 | 0.00 | 69 | 1017.6 |
| 20260506151502 | 64 | 315 | 1.0 | 2.0 | 0.00 | 0.00 | 0.00 | 73 | 1017.7 |
| 20260506150001 | 62 | 23 | 2.0 | 4.0 | 0.00 | 0.00 | 0.00 | 75 | 1017.8 |
| 20260506143000 | 58 | 92 | 2.0 | 4.0 | 0.00 | 0.00 | 0.00 | 80 | 1017.6 |
| 20260506140000 | 55 | 61 | 2.0 | 4.0 | 0.00 | 0.00 | 0.00 | 85 | 1017.4 |
| 20260506134502 | 54 | 101 | 3.0 | 5.0 | 0.00 | 0.00 | 0.00 | 86 | 1017.4 |
| 20260506133000 | 53 | 72 | 2.0 | 4.0 | 0.00 | 0.00 | 0.00 | 89 | 1017.1 |